BVX2972 LFOB-LFSB

Flight info

Callsign BVX2972
Flight time 0h 45m
Altitude 31000
Route BUBLI DCT LUVAL DCT OKIPO DCT LUL G42 ARPUS
Aircraft A321/M-SDE3FGHIRWY/LB1

Departure

Time 2026-05-04 01:39
Airport Beauvais-Tillé airport (LFOB)

Arrival

Time 2026-05-04 02:25
Airport EuroAirport Basel–Mulhouse–Freiburg (LFSB)
Time Latitude Longitude Altitude Speed Heading
2026-05-04 01:26 49.45849 2.11375 336 ft 0 kts 312°
2026-05-04 01:33 49.45840 2.11389 333 ft 3 kts 312°
2026-05-04 01:33 49.45828 2.11411 335 ft 3 kts 312°
2026-05-04 01:34 49.45818 2.11436 331 ft 3 kts 259°
2026-05-04 01:34 49.45824 2.11462 331 ft 2 kts 222°
2026-05-04 01:34 49.45825 2.11463 331 ft 0 kts 222°
2026-05-04 01:36 49.45820 2.11457 331 ft 2 kts 222°
2026-05-04 01:36 49.45805 2.11435 330 ft 4 kts 222°
2026-05-04 01:36 49.45780 2.11402 332 ft 5 kts 222°
2026-05-04 01:36 49.45749 2.11359 334 ft 7 kts 222°
2026-05-04 01:37 49.45715 2.11306 332 ft 7 kts 236°
2026-05-04 01:37 49.45710 2.11227 337 ft 8 kts 280°
2026-05-04 01:37 49.45738 2.11149 334 ft 9 kts 302°
2026-05-04 01:37 49.45776 2.11057 335 ft 11 kts 302°
2026-05-04 01:38 49.45776 2.10976 331 ft 8 kts 231°
2026-05-04 01:38 49.45724 2.10926 334 ft 9 kts 211°
2026-05-04 01:38 49.45665 2.10872 335 ft 11 kts 211°
2026-05-04 01:38 49.45608 2.10890 337 ft 9 kts 125°
2026-05-04 01:39 49.45538 2.11052 337 ft 51 kts 123°
2026-05-04 01:39 49.45168 2.11904 351 ft 138 kts 123°
2026-05-04 01:39 49.44535 2.13393 676 ft 181 kts 121°
2026-05-04 01:39 49.44076 2.15252 1555 ft 192 kts 103°
2026-05-04 01:40 49.43924 2.17340 2441 ft 203 kts 92°
2026-05-04 01:40 49.44041 2.19528 2901 ft 209 kts 80°
2026-05-04 01:40 49.44290 2.21753 3261 ft 216 kts 84°
2026-05-04 01:40 49.44410 2.24161 3384 ft 238 kts 88°
2026-05-04 01:41 49.44492 2.26836 3624 ft 263 kts 88°
2026-05-04 01:41 49.44580 2.29700 4283 ft 273 kts 88°
2026-05-04 01:41 49.44681 2.32633 5092 ft 277 kts 89°
2026-05-04 01:41 49.44568 2.35593 5884 ft 279 kts 104°
2026-05-04 01:42 49.43944 2.38418 6667 ft 280 kts 120°
2026-05-04 01:42 49.42983 2.41033 7437 ft 283 kts 123°
2026-05-04 01:42 49.42002 2.43665 8233 ft 286 kts 122°
2026-05-04 01:42 49.41017 2.46340 9046 ft 289 kts 122°
2026-05-04 01:43 49.40022 2.49042 9837 ft 292 kts 122°
2026-05-04 01:43 49.39002 2.51805 10343 ft 307 kts 122°
2026-05-04 01:43 49.37905 2.54750 10551 ft 329 kts 122°
2026-05-04 01:43 49.36725 2.57908 10710 ft 352 kts 122°
2026-05-04 01:44 49.35484 2.61248 11009 ft 368 kts 122°
2026-05-04 01:44 49.34211 2.64699 11636 ft 374 kts 122°
2026-05-04 01:44 49.32931 2.68186 12310 ft 377 kts 122°
2026-05-04 01:44 49.31654 2.71669 13023 ft 380 kts 122°
2026-05-04 01:45 49.30347 2.75220 13724 ft 384 kts 123°
2026-05-04 01:45 49.29025 2.78791 14348 ft 387 kts 123°
2026-05-04 01:45 49.26324 2.86044 15538 ft 396 kts 123°
2026-05-04 01:46 49.24951 2.89729 16134 ft 401 kts 123°
2026-05-04 01:46 49.23560 2.93465 16710 ft 406 kts 123°
2026-05-04 01:46 49.22152 2.97242 17306 ft 411 kts 124°
2026-05-04 01:46 49.20726 3.01054 17883 ft 416 kts 124°
2026-05-04 01:47 49.19280 3.04924 18435 ft 420 kts 124°
2026-05-04 01:47 49.17842 3.08775 18951 ft 423 kts 124°
2026-05-04 01:47 49.16374 3.12681 19471 ft 426 kts 124°
2026-05-04 01:47 49.14890 3.16615 20024 ft 427 kts 124°
2026-05-04 01:48 49.13405 3.20560 20600 ft 429 kts 124°
2026-05-04 01:48 49.11918 3.24515 21177 ft 429 kts 124°
2026-05-04 01:48 49.10428 3.28469 21742 ft 430 kts 124°
2026-05-04 01:48 49.08933 3.32433 22293 ft 431 kts 125°
2026-05-04 01:49 49.07431 3.36397 22844 ft 432 kts 125°
2026-05-04 01:49 49.05919 3.40371 23379 ft 433 kts 125°
2026-05-04 01:49 49.04408 3.44328 23840 ft 435 kts 125°
2026-05-04 01:49 49.02880 3.48313 24231 ft 437 kts 125°
2026-05-04 01:50 49.01345 3.52323 24595 ft 439 kts 125°
2026-05-04 01:50 48.99799 3.56366 24901 ft 444 kts 125°
2026-05-04 01:50 48.98240 3.60451 25217 ft 448 kts 125°
2026-05-04 01:50 48.96671 3.64563 25526 ft 451 kts 125°
2026-05-04 01:51 48.95090 3.68693 25860 ft 453 kts 125°
2026-05-04 01:51 48.93493 3.72849 26182 ft 456 kts 125°
2026-05-04 01:51 48.91888 3.77021 26512 ft 459 kts 125°
2026-05-04 01:51 48.90292 3.81169 26835 ft 461 kts 126°
2026-05-04 01:52 48.88665 3.85387 27169 ft 464 kts 126°
2026-05-04 01:52 48.87019 3.89641 27503 ft 467 kts 126°
2026-05-04 01:52 48.85369 3.93899 27896 ft 468 kts 126°
2026-05-04 01:52 48.83719 3.98159 28369 ft 467 kts 126°
2026-05-04 01:53 48.82072 4.02407 28815 ft 467 kts 126°
2026-05-04 01:53 48.80425 4.06657 29278 ft 467 kts 127°
2026-05-04 01:53 48.78776 4.10893 29740 ft 466 kts 127°
2026-05-04 01:53 48.77113 4.15117 30168 ft 465 kts 128°
2026-05-04 01:54 48.75369 4.19242 30563 ft 463 kts 130°
2026-05-04 01:54 48.73536 4.23250 30881 ft 462 kts 132°
2026-05-04 01:54 48.69749 4.31036 30977 ft 455 kts 133°
2026-05-04 01:55 48.66020 4.38686 30975 ft 454 kts 132°
2026-05-04 01:55 48.62338 4.46444 30976 ft 454 kts 131°
2026-05-04 01:56 48.58688 4.54215 30984 ft 454 kts 131°
2026-05-04 01:56 48.55026 4.61992 30975 ft 453 kts 131°
2026-05-04 01:57 48.51347 4.69708 30981 ft 453 kts 132°
2026-05-04 01:57 48.47652 4.77411 30959 ft 453 kts 131°
2026-05-04 01:58 48.44585 4.83820 30980 ft 453 kts 131°
2026-05-04 01:58 48.40897 4.91527 30979 ft 453 kts 131°
2026-05-04 01:59 48.36599 5.00457 30991 ft 453 kts 131°
2026-05-04 01:59 48.33510 5.06837 31002 ft 453 kts 132°
2026-05-04 02:00 48.29170 5.15792 30984 ft 452 kts 132°
2026-05-04 02:00 48.25987 5.22026 30989 ft 451 kts 134°
2026-05-04 02:01 48.22060 5.29295 31008 ft 451 kts 135°
2026-05-04 02:01 48.18105 5.36606 31018 ft 452 kts 134°
2026-05-04 02:02 48.14172 5.43970 31021 ft 452 kts 134°
2026-05-04 02:02 48.10248 5.51319 31029 ft 452 kts 134°
2026-05-04 02:03 48.06314 5.58649 30999 ft 452 kts 135°
2026-05-04 02:03 48.02376 5.65973 31011 ft 452 kts 135°
2026-05-04 02:04 47.98450 5.73244 30742 ft 453 kts 135°
2026-05-04 02:04 47.96468 5.76912 30490 ft 453 kts 135°
2026-05-04 02:04 47.94488 5.80568 30248 ft 453 kts 135°
2026-05-04 02:05 47.92505 5.84224 29996 ft 454 kts 135°
2026-05-04 02:05 47.90519 5.87888 29710 ft 454 kts 135°
2026-05-04 02:05 47.88551 5.91593 29430 ft 455 kts 134°
2026-05-04 02:05 47.86612 5.95322 29130 ft 457 kts 133°
2026-05-04 02:06 47.84677 5.99089 28843 ft 458 kts 133°
2026-05-04 02:06 47.82747 6.02858 28573 ft 459 kts 133°
2026-05-04 02:06 47.80805 6.06639 28311 ft 460 kts 133°
2026-05-04 02:06 47.78855 6.10415 28045 ft 460 kts 133°
2026-05-04 02:07 47.76891 6.14189 27777 ft 460 kts 133°
2026-05-04 02:07 47.74925 6.17942 27510 ft 460 kts 133°
2026-05-04 02:07 47.72977 6.21648 27260 ft 461 kts 133°
2026-05-04 02:07 47.71156 6.25605 27003 ft 467 kts 125°
2026-05-04 02:08 47.69750 6.29995 26743 ft 474 kts 115°
2026-05-04 02:08 47.68821 6.34715 26434 ft 481 kts 106°
2026-05-04 02:08 47.68382 6.39657 25667 ft 484 kts 97°
2026-05-04 02:08 47.68196 6.44643 24895 ft 481 kts 97°
2026-05-04 02:09 47.68000 6.49594 23939 ft 482 kts 97°
2026-05-04 02:09 47.67791 6.54584 22880 ft 485 kts 97°
2026-05-04 02:09 47.67581 6.59551 22068 ft 479 kts 97°
2026-05-04 02:09 47.67370 6.64469 21247 ft 475 kts 97°
2026-05-04 02:10 47.67149 6.69331 20436 ft 470 kts 97°
2026-05-04 02:10 47.66919 6.74143 19637 ft 466 kts 97°
2026-05-04 02:10 47.66683 6.78924 18858 ft 461 kts 97°
2026-05-04 02:10 47.66453 6.83568 18338 ft 450 kts 96°
2026-05-04 02:11 47.66005 6.88054 17849 ft 432 kts 109°
2026-05-04 02:11 47.64770 6.92037 17181 ft 420 kts 127°
2026-05-04 02:11 47.62938 6.95373 16864 ft 418 kts 133°
2026-05-04 02:11 47.61033 6.98641 16580 ft 417 kts 133°
2026-05-04 02:12 47.59151 7.01856 16304 ft 416 kts 133°
2026-05-04 02:12 47.57262 7.05085 16027 ft 414 kts 133°
2026-05-04 02:12 47.55384 7.08308 15756 ft 413 kts 133°
2026-05-04 02:12 47.53510 7.11523 15474 ft 411 kts 133°
2026-05-04 02:13 47.51666 7.14695 15194 ft 410 kts 133°
2026-05-04 02:13 47.49811 7.17896 14936 ft 409 kts 133°
2026-05-04 02:13 47.47965 7.21087 14673 ft 407 kts 133°
2026-05-04 02:13 47.46127 7.24265 14408 ft 406 kts 133°
2026-05-04 02:14 47.44291 7.27443 14147 ft 404 kts 133°
2026-05-04 02:14 47.42493 7.30558 13884 ft 402 kts 133°
2026-05-04 02:14 47.40685 7.33691 13597 ft 401 kts 133°
2026-05-04 02:14 47.38880 7.36813 13231 ft 399 kts 133°
2026-05-04 02:15 47.37086 7.39908 12731 ft 395 kts 133°
2026-05-04 02:15 47.35304 7.42970 12249 ft 392 kts 133°
2026-05-04 02:15 47.33529 7.45993 11752 ft 387 kts 133°
2026-05-04 02:15 47.31770 7.48946 11274 ft 378 kts 133°
2026-05-04 02:16 47.30061 7.51781 10811 ft 361 kts 133°
2026-05-04 02:16 47.28321 7.54290 10352 ft 341 kts 141°
2026-05-04 02:16 47.26526 7.56446 9893 ft 325 kts 142°
2026-05-04 02:16 47.24793 7.58483 9395 ft 313 kts 141°
2026-05-04 02:17 47.23366 7.60805 9024 ft 300 kts 122°
2026-05-04 02:17 47.22587 7.63552 8794 ft 293 kts 103°
2026-05-04 02:17 47.22477 7.66495 8564 ft 287 kts 83°
2026-05-04 02:17 47.23041 7.69272 8331 ft 283 kts 63°
2026-05-04 02:18 47.24191 7.71605 8111 ft 282 kts 44°
2026-05-04 02:18 47.25788 7.73252 7886 ft 280 kts 25°
2026-05-04 02:18 47.27634 7.74029 7660 ft 273 kts
2026-05-04 02:18 47.29491 7.73792 7426 ft 266 kts 337°
2026-05-04 02:19 47.31037 7.72389 7231 ft 257 kts 325°
2026-05-04 02:19 47.32572 7.71137 7076 ft 249 kts 334°
2026-05-04 02:19 47.34138 7.70081 7008 ft 246 kts 334°
2026-05-04 02:19 47.35672 7.69044 6808 ft 244 kts 333°
2026-05-04 02:20 47.37208 7.67989 6472 ft 241 kts 333°
2026-05-04 02:20 47.38723 7.66944 6097 ft 239 kts 333°
2026-05-04 02:20 47.40228 7.65907 5713 ft 237 kts 334°
2026-05-04 02:20 47.41719 7.64879 5344 ft 235 kts 334°
2026-05-04 02:21 47.43193 7.63862 4987 ft 231 kts 334°
2026-05-04 02:21 47.44603 7.62888 4639 ft 217 kts 334°
2026-05-04 02:21 47.45917 7.61981 4326 ft 200 kts 334°
2026-05-04 02:21 47.47138 7.61137 4018 ft 184 kts 334°
2026-05-04 02:22 47.48261 7.60361 3740 ft 174 kts 334°
2026-05-04 02:22 47.49337 7.59616 3489 ft 169 kts 334°
2026-05-04 02:22 47.50383 7.58892 3219 ft 167 kts 334°
2026-05-04 02:22 47.51434 7.58164 2952 ft 167 kts 333°
2026-05-04 02:23 47.52482 7.57437 2690 ft 166 kts 334°
2026-05-04 02:23 47.53516 7.56721 2420 ft 161 kts 334°
2026-05-04 02:23 47.54515 7.56028 2166 ft 156 kts 335°
2026-05-04 02:23 47.55493 7.55350 1927 ft 154 kts 335°
2026-05-04 02:24 47.56455 7.54687 1691 ft 152 kts 335°
2026-05-04 02:24 47.57420 7.54019 1460 ft 154 kts 334°
2026-05-04 02:24 47.58391 7.53345 1219 ft 154 kts 333°
2026-05-04 02:24 47.59365 7.52659 978 ft 155 kts 333°
2026-05-04 02:25 47.60300 7.52006 893 ft 133 kts 335°
2026-05-04 02:25 47.60985 7.51531 888 ft 84 kts 335°
2026-05-04 02:25 47.61357 7.51276 885 ft 34 kts 335°
2026-05-04 02:25 47.61489 7.51184 885 ft 25 kts 335°
2026-05-04 02:26 47.61679 7.51054 887 ft 30 kts 341°
2026-05-04 02:26 47.61803 7.51151 887 ft 22 kts 79°
2026-05-04 02:26 47.61720 7.51313 887 ft 22 kts 156°
2026-05-04 02:26 47.61577 7.51415 886 ft 23 kts 154°
2026-05-04 02:27 47.61425 7.51520 886 ft 25 kts 155°
2026-05-04 02:27 47.61264 7.51631 886 ft 26 kts 155°
2026-05-04 02:27 47.61098 7.51746 887 ft 26 kts 155°
2026-05-04 02:27 47.60931 7.51864 887 ft 27 kts 154°
2026-05-04 02:28 47.60776 7.51971 886 ft 25 kts 155°
2026-05-04 02:28 47.60618 7.52081 886 ft 26 kts 155°
2026-05-04 02:28 47.60452 7.52197 887 ft 27 kts 155°
2026-05-04 02:28 47.60300 7.52303 887 ft 23 kts 155°
2026-05-04 02:29 47.60156 7.52403 887 ft 18 kts 155°
2026-05-04 02:29 47.60052 7.52475 887 ft 13 kts 155°
2026-05-04 02:29 47.59967 7.52535 887 ft 14 kts 155°
2026-05-04 02:29 47.59903 7.52611 887 ft 11 kts 93°
2026-05-04 02:30 47.59866 7.52720 887 ft 13 kts 124°
2026-05-04 02:30 47.59883 7.52792 886 ft 0 kts 41°